When you browse on this site, cookies collect data to enhance your experience and personalize the content and advertising you see.
Visit our Privacy Policy to learn more. By continuing to use the site, you agree to this use of cookies and data.
  • In Switzerland
  • List of Countries
  • For 7 days
  • Water Temperature
  • Weather Map
  • Weather Widgets
  • user-avatar
    Login

    Hourly Weather Kaposvar

    Today, 18 August, Sunday

    Time Temperature Precipitation Wind Pressure Humidity
    00:00 +19°C° 0 mm 2 mps 747 mmHg 63%
    01:00 +18°C° 0 mm 2 mps 747 mmHg 64%
    02:00 +18°C° 0 mm 2 mps 747 mmHg 64%
    03:00 +18°C° 0 mm 2 mps 747 mmHg 64%
    04:00 +19°C° 0 mm 1 mps 747 mmHg 63%
    05:00 +20°C° 0 mm 1 mps 747 mmHg 62%
    06:00 +20°C° 0 mm 2 mps 747 mmHg 61%
    07:00 +20°C° 0 mm 2 mps 747 mmHg 60%
    08:00 +23°C° 0 mm 2 mps 747 mmHg 54%
    09:00 +26°C° 0 mm 3 mps 747 mmHg 48%
    10:00 +28°C° 0 mm 3 mps 747 mmHg 43%
    11:00 +29°C° 0 mm 3 mps 747 mmHg 39%
    12:00 +32°C° 0 mm 4 mps 747 mmHg 35%
    13:00 +33°C° 0 mm 4 mps 747 mmHg 31%
    14:00 +33°C° 0 mm 4 mps 747 mmHg 32%
    15:00 +33°C° 0 mm 4 mps 746 mmHg 32%
    16:00 +33°C° 0 mm 4 mps 746 mmHg 32%
    17:00 +30°C° 0 mm 3 mps 746 mmHg 39%
    18:00 +28°C° 0 mm 3 mps 746 mmHg 46%
    19:00 +26°C° 0 mm 2 mps 746 mmHg 53%
    20:00 +25°C° 0 mm 3 mps 746 mmHg 53%
    21:00 +24°C° 0 mm 3 mps 746 mmHg 54%
    22:00 +22°C° 0 mm 3 mps 746 mmHg 54%
    23:00 +22°C° 0 mm 3 mps 746 mmHg 55%

    Tomorrow, 19 August, Monday

    Time Temperature Precipitation Wind Pressure Humidity
    00:00 +21°C° 0 mm 3 mps 746 mmHg 56%
    01:00 +21°C° 0 mm 3 mps 746 mmHg 57%
    02:00 +20°C° 0 mm 3 mps 746 mmHg 57%
    03:00 +20°C° 0 mm 2 mps 746 mmHg 57%
    04:00 +20°C° 0 mm 2 mps 746 mmHg 57%
    05:00 +21°C° 0 mm 2 mps 747 mmHg 56%
    06:00 +23°C° 0 mm 2 mps 747 mmHg 54%
    07:00 +24°C° 0 mm 2 mps 748 mmHg 53%
    08:00 +26°C° 0 mm 2 mps 748 mmHg 47%
    09:00 +29°C° 0 mm 2 mps 748 mmHg 42%
    10:00 +31°C° 0 mm 2 mps 748 mmHg 36%
    11:00 +32°C° 0 mm 2 mps 748 mmHg 34%
    12:00 +34°C° 0 mm 2 mps 748 mmHg 32%
    13:00 +36°C° 0 mm 2 mps 748 mmHg 30%
    14:00 +35°C° 0 mm 2 mps 748 mmHg 30%
    15:00 +35°C° 0 mm 2 mps 748 mmHg 30%
    16:00 +35°C° 0 mm 2 mps 747 mmHg 31%
    17:00 +32°C° 0 mm 2 mps 748 mmHg 37%
    18:00 +29°C° 0 mm 2 mps 748 mmHg 44%
    19:00 +27°C° 0 mm 2 mps 748 mmHg 51%
    20:00 +26°C° 0 mm 2 mps 748 mmHg 56%
    21:00 +25°C° 0 mm 2 mps 748 mmHg 60%
    22:00 +24°C° 0 mm 2 mps 749 mmHg 65%
    23:00 +23°C° 0 mm 2 mps 749 mmHg 66%

    Day after tomorrow, 20 August, Tuesday

    Time Temperature Precipitation Wind Pressure Humidity
    00:00 +23°C° 0 mm 2 mps 749 mmHg 67%
    01:00 +22°C° 0 mm 1 mps 749 mmHg 68%
    02:00 +22°C° 0 mm 1 mps 749 mmHg 70%
    03:00 +22°C° 0 mm 1 mps 749 mmHg 71%
    04:00 +21°C° 0 mm 1 mps 749 mmHg 72%
    05:00 +22°C° 0 mm 1 mps 749 mmHg 68%
    06:00 +24°C° 0 mm 1 mps 749 mmHg 64%
    07:00 +25°C° 0 mm 1 mps 749 mmHg 61%
    08:00 +27°C° 0 mm 1 mps 749 mmHg 54%
    09:00 +30°C° 0 mm 1 mps 750 mmHg 47%
    10:00 +32°C° 0 mm 1 mps 750 mmHg 40%
    11:00 +34°C° 0 mm 1 mps 749 mmHg 36%
    12:00 +36°C° 0 mm 2 mps 749 mmHg 33%
    13:00 +37°C° 0 mm 2 mps 749 mmHg 30%
    14:00 +37°C° 0 mm 2 mps 748 mmHg 29%
    15:00 +37°C° 0 mm 3 mps 748 mmHg 29%
    16:00 +37°C° 0 mm 3 mps 747 mmHg 29%
    17:00 +34°C° 0 mm 2 mps 747 mmHg 35%
    18:00 +31°C° 0 mm 2 mps 747 mmHg 41%
    19:00 +29°C° 0 mm 2 mps 747 mmHg 47%
    20:00 +28°C° 0 mm 1 mps 747 mmHg 49%
    21:00 +27°C° 0 mm 1 mps 748 mmHg 51%
    22:00 +26°C° 0 mm 1 mps 748 mmHg 53%
    23:00 +25°C° 0 mm 2 mps 748 mmHg 55%

    21 August, Wednesday

    Time Temperature Precipitation Wind Pressure Humidity
    00:00 +25°C° 0 mm 3 mps 748 mmHg 57%
    01:00 +24°C° 0 mm 3 mps 748 mmHg 59%
    02:00 +22°C° 0 mm 4 mps 749 mmHg 64%
    03:00 +21°C° 0 mm 5 mps 749 mmHg 70%
    04:00 +20°C° 0 mm 6 mps 749 mmHg 75%
    05:00 +20°C° 0 mm 6 mps 750 mmHg 73%
    06:00 +20°C° 0 mm 6 mps 750 mmHg 71%
    07:00 +21°C° 0 mm 6 mps 751 mmHg 69%
    08:00 +22°C° 0 mm 6 mps 751 mmHg 64%
    09:00 +24°C° 0 mm 6 mps 751 mmHg 58%
    10:00 +27°C° 0 mm 5 mps 751 mmHg 52%
    11:00 +28°C° 0 mm 5 mps 751 mmHg 50%
    12:00 +29°C° 0 mm 5 mps 751 mmHg 47%
    13:00 +30°C° 0 mm 5 mps 750 mmHg 44%
    14:00 +30°C° 0 mm 5 mps 750 mmHg 45%
    15:00 +30°C° 0 mm 6 mps 750 mmHg 46%
    16:00 +29°C° 0 mm 6 mps 750 mmHg 47%
    17:00 +28°C° 0 mm 5 mps 750 mmHg 51%
    18:00 +26°C° 0 mm 4 mps 750 mmHg 56%
    19:00 +23°C° 0 mm 4 mps 751 mmHg 61%
    20:00 +22°C° 0 mm 4 mps 751 mmHg 64%
    21:00 +21°C° 0 mm 4 mps 751 mmHg 67%
    22:00 +20°C° 0 mm 4 mps 752 mmHg 70%
    23:00 +19°C° 0 mm 3 mps 752 mmHg 73%

    22 August, Thursday

    Time Temperature Precipitation Wind Pressure Humidity
    00:00 +19°C° 0 mm 3 mps 752 mmHg 76%
    01:00 +18°C° 0 mm 2 mps 752 mmHg 79%
    02:00 +18°C° 0 mm 2 mps 752 mmHg 81%
    03:00 +17°C° 0 mm 2 mps 752 mmHg 84%
    04:00 +17°C° 0 mm 2 mps 752 mmHg 86%
    05:00 +18°C° 0 mm 2 mps 752 mmHg 82%
    06:00 +19°C° 0 mm 2 mps 752 mmHg 78%
    07:00 +19°C° 0 mm 2 mps 752 mmHg 74%
    08:00 +21°C° 0 mm 2 mps 752 mmHg 68%
    09:00 +24°C° 0 mm 2 mps 752 mmHg 62%
    10:00 +26°C° 0 mm 2 mps 753 mmHg 56%
    11:00 +27°C° 0 mm 2 mps 752 mmHg 52%
    12:00 +28°C° 0 mm 2 mps 752 mmHg 49%
    13:00 +30°C° 0 mm 2 mps 751 mmHg 46%
    14:00 +30°C° 0 mm 2 mps 751 mmHg 46%
    15:00 +30°C° 0 mm 3 mps 751 mmHg 46%
    16:00 +30°C° 0 mm 3 mps 751 mmHg 46%
    17:00 +28°C° 0 mm 3 mps 751 mmHg 51%
    18:00 +26°C° 0 mm 2 mps 751 mmHg 56%
    19:00 +25°C° 0 mm 2 mps 751 mmHg 62%
    20:00 +24°C° 0.1 mm 2 mps 751 mmHg 64%
    21:00 +22°C° 0.1 mm 3 mps 752 mmHg 65%
    22:00 +21°C° 0.1 mm 3 mps 752 mmHg 67%
    23:00 +20°C° 0.1 mm 3 mps 752 mmHg 71%

    23 August, Friday

    Time Temperature Precipitation Wind Pressure Humidity
    00:00 +20°C° 0.1 mm 2 mps 752 mmHg 74%
    01:00 +19°C° 0.1 mm 2 mps 752 mmHg 77%
    02:00 +19°C° 0 mm 2 mps 752 mmHg 78%
    03:00 +18°C° 0 mm 2 mps 752 mmHg 80%
    04:00 +18°C° 0 mm 2 mps 752 mmHg 82%
    05:00 +19°C° 0 mm 2 mps 752 mmHg 78%
    06:00 +19°C° 0 mm 2 mps 752 mmHg 75%
    07:00 +21°C° 0 mm 1 mps 753 mmHg 71%
    08:00 +23°C° 0 mm 2 mps 753 mmHg 64%
    09:00 +25°C° 0 mm 2 mps 753 mmHg 57%
    10:00 +27°C° 0 mm 2 mps 753 mmHg 51%
    11:00 +28°C° 0 mm 2 mps 752 mmHg 47%
    12:00 +30°C° 0 mm 2 mps 752 mmHg 44%
    13:00 +31°C° 0 mm 2 mps 752 mmHg 40%
    14:00 +31°C° 0 mm 3 mps 751 mmHg 40%
    15:00 +31°C° 0 mm 3 mps 751 mmHg 39%
    16:00 +31°C° 0 mm 3 mps 750 mmHg 39%
    17:00 +30°C° 0 mm 3 mps 750 mmHg 45%
    18:00 +28°C° 0 mm 3 mps 750 mmHg 51%
    19:00 +26°C° 0 mm 2 mps 750 mmHg 57%
    20:00 +25°C° 0 mm 2 mps 750 mmHg 61%
    21:00 +24°C° 0 mm 2 mps 751 mmHg 64%
    22:00 +23°C° 0 mm 2 mps 751 mmHg 67%
    23:00 +21°C° 0 mm 2 mps 751 mmHg 70%
    Show more